Home   Weather   France   Vannes   Past weeks
Flag for France

Past Weather in Vannes, Morbihan, France — Yesterday and Last 2 Weeks

Currently: 55 °F. Partly sunny. (Weather station: St-Nazaire, France). See more current weather

Past Weather in Vannes — Graph

°F

Vannes Temperature Yesterday

Maximum temperature yesterday: 66 °F (at 5:00 pm)
Minimum temperature yesterday: 50 °F (at 6:30 am)
Average temperature yesterday: 57 °F

High & Low Weather Summary for the Past Weeks

 TemperatureHumidityPressure
High72 °F (Apr 12, 4:00 pm)100% (Apr 3, 12:30 am)30.54 "Hg (Apr 3, 12:30 am)
Low45 °F (Apr 10, 1:00 am)49% (Apr 6, 8:00 am)29.15 "Hg (Mar 31, 10:00 am)
Average56 °F83%29.98 "Hg
* Reported Mar 31 10:00 am — Apr 15 10:30 am, Vannes. Weather by CustomWeather, © 2024

Note: Actual official high and low records may vary slightly from our data, if they occured in-between our weather recording intervals... More about our weather records

Vannes Weather History for the Previous 24 Hours

Scroll right to see more
 ConditionsComfort  
Time TempWeatherWind HumidityBarometerVisibility
10:30 am
Mon, Apr 15
55 °FPartly sunny.18 mph67%30.15 "HgN/A
10:00 am55 °FPartly sunny.17 mph63%30.15 "HgN/A
9:30 am54 °FMore clouds than sun.13 mph72%30.15 "HgN/A
9:00 am54 °FOvercast.13 mph72%30.15 "HgN/A
8:30 am50 °FOvercast.6 mph82%30.15 "HgN/A
8:00 am46 °FOvercast.5 mph93%30.15 "HgN/A
7:30 am45 °FPartly sunny.3 mph93%30.15 "HgN/A
7:00 am45 °FClear.5 mph87%30.15 "Hg10 mi
6:30 am48 °FClear.7 mph82%30.15 "Hg10 mi
6:00 am48 °FPassing clouds.7 mph82%30.18 "HgN/A
5:30 am48 °FPassing clouds.7 mph82%30.18 "HgN/A
5:00 am48 °FPassing clouds.7 mph82%30.18 "HgN/A
4:30 am48 °FClear.6 mph82%30.18 "Hg10 mi
4:00 am48 °FPassing clouds.5 mph82%30.18 "HgN/A
3:30 am48 °FClear.5 mph82%30.18 "Hg10 mi
3:00 am50 °FPassing clouds.5 mph76%30.18 "HgN/A
2:30 am50 °FPartly cloudy.6 mph76%30.18 "HgN/A
2:00 am52 °FMostly cloudy.7 mph72%30.18 "HgN/A
1:30 am52 °FPartly cloudy.6 mph72%30.18 "HgN/A
1:00 am52 °FPassing clouds.5 mph72%30.18 "HgN/A
12:30 am52 °FPartly cloudy.10 mph67%30.18 "HgN/A
12:00 am54 °FClear.12 mph67%30.18 "Hg10 mi
11:30 pm
Sun, Apr 14
55 °FClear.12 mph77%30.18 "Hg10 mi
11:00 pm57 °FClear.7 mph82%30.18 "Hg10 mi
10:30 pm57 °FClear.3 mph88%30.15 "Hg10 mi
10:00 pm59 °FClear.3 mph88%30.15 "Hg10 mi
9:00 pm57 °FClear.8 mph88%30.18 "Hg10 mi
8:30 pm59 °FSunny.12 mph82%30.18 "Hg10 mi
8:00 pm59 °FPassing clouds.9 mph82%30.18 "HgN/A
7:30 pm61 °FClear.9 mph83%30.18 "Hg6 mi
7:00 pm63 °FPassing clouds.9 mph77%30.15 "HgN/A
6:30 pm64 °FSunny.9 mph64%30.18 "Hg10 mi
6:00 pm66 °FPassing clouds.6 mph64%30.18 "HgN/A
5:30 pm66 °FPassing clouds.7 mph64%30.18 "HgN/A
5:00 pm66 °FPassing clouds.7 mph68%30.18 "HgN/A
4:30 pm64 °FPassing clouds.3 mph68%30.18 "HgN/A
4:00 pm64 °FPassing clouds.7 mph68%30.21 "HgN/A
3:30 pm64 °FPassing clouds.6 mph73%30.21 "HgN/A
3:00 pm64 °FSunny.3 mph73%30.21 "Hg10 mi
2:30 pm63 °FSunny.3 mph73%30.24 "Hg10 mi
2:00 pm61 °FPassing clouds.3 mph77%30.24 "HgN/A
1:30 pm59 °FScattered clouds.6 mph82%30.24 "HgN/A
1:00 pm57 °FOvercast.6 mph82%30.27 "HgN/A
12:30 pm55 °FOvercast.7 mph88%30.27 "HgN/A
12:00 pm55 °FLow clouds.8 mph88%30.30 "HgN/A
11:30 am54 °FLow clouds.8 mph88%30.27 "HgN/A
11:00 am54 °FLow clouds.8 mph94%30.30 "HgN/A
Weather by CustomWeather, © 2024

See weather overview